Year,Month,Day,Hour,Minute,Value (Times are PST for temperature in C)
2013,05,21,00,00,9.70
2013,05,21,00,01,9.70
2013,05,21,00,02,9.70
2013,05,21,00,03,9.70
2013,05,21,00,04,9.70
2013,05,21,00,05,9.70
2013,05,21,00,06,9.60
2013,05,21,00,07,9.60
2013,05,21,00,08,9.60
2013,05,21,00,09,9.60
2013,05,21,00,10,9.60
2013,05,21,00,11,9.60
2013,05,21,00,12,9.50
2013,05,21,00,13,9.50
2013,05,21,00,14,9.50
2013,05,21,00,15,9.50
2013,05,21,00,16,9.50
2013,05,21,00,17,9.50
2013,05,21,00,18,9.50
2013,05,21,00,19,9.50
2013,05,21,00,20,9.50
2013,05,21,00,21,9.50
2013,05,21,00,22,9.50
2013,05,21,00,23,9.50
2013,05,21,00,24,9.50
2013,05,21,00,25,9.50
2013,05,21,00,26,9.40
2013,05,21,00,27,9.40
2013,05,21,00,28,9.40
2013,05,21,00,29,9.40
2013,05,21,00,30,9.40
2013,05,21,00,31,9.40
2013,05,21,00,32,9.40
2013,05,21,00,33,9.40
2013,05,21,00,34,9.40
2013,05,21,00,35,9.40
2013,05,21,00,36,9.40
2013,05,21,00,37,9.40
2013,05,21,00,38,9.30
2013,05,21,00,39,9.30
2013,05,21,00,40,9.30
2013,05,21,00,41,9.30
2013,05,21,00,42,9.20
2013,05,21,00,43,9.20
2013,05,21,00,44,9.20
2013,05,21,00,45,9.20
2013,05,21,00,46,9.20
2013,05,21,00,47,9.20
2013,05,21,00,48,9.20
2013,05,21,00,49,9.20
2013,05,21,00,50,9.20
2013,05,21,00,51,9.10
2013,05,21,00,52,9.10
2013,05,21,00,53,9.10
2013,05,21,00,54,9.10
2013,05,21,00,55,9.00
2013,05,21,00,56,9.00
2013,05,21,00,57,9.00
2013,05,21,00,58,9.00
2013,05,21,00,59,9.00
2013,05,21,01,00,9.00
2013,05,21,01,01,9.00
2013,05,21,01,02,9.00
2013,05,21,01,03,8.90
2013,05,21,01,04,8.90
2013,05,21,01,05,8.90
2013,05,21,01,06,8.90
2013,05,21,01,07,8.90
2013,05,21,01,08,8.90
2013,05,21,01,09,8.90
2013,05,21,01,10,8.90
2013,05,21,01,11,8.90
2013,05,21,01,12,8.90
2013,05,21,01,13,8.90
2013,05,21,01,14,8.90
2013,05,21,01,15,8.80
2013,05,21,01,16,8.80
2013,05,21,01,17,8.80
2013,05,21,01,18,8.80
2013,05,21,01,19,8.90
2013,05,21,01,20,8.80
2013,05,21,01,21,8.90
2013,05,21,01,22,8.90
2013,05,21,01,23,8.90
2013,05,21,01,24,8.90
2013,05,21,01,25,8.80
2013,05,21,01,26,8.80
2013,05,21,01,27,8.80
2013,05,21,01,28,8.80
2013,05,21,01,29,8.80
2013,05,21,01,30,8.80
2013,05,21,01,31,8.80
2013,05,21,01,32,8.80
2013,05,21,01,33,8.80
2013,05,21,01,34,8.80
2013,05,21,01,35,8.80
2013,05,21,01,36,8.80
2013,05,21,01,37,8.80
2013,05,21,01,38,8.80
2013,05,21,01,39,8.80
2013,05,21,01,40,8.80
2013,05,21,01,41,8.80
2013,05,21,01,42,8.80
2013,05,21,01,43,8.80
2013,05,21,01,44,8.80
2013,05,21,01,45,8.90
2013,05,21,01,46,8.90
2013,05,21,01,47,8.90
2013,05,21,01,48,8.90
2013,05,21,01,49,8.90
2013,05,21,01,50,8.90
2013,05,21,01,51,8.90
2013,05,21,01,52,9.00
2013,05,21,01,53,9.00
2013,05,21,01,54,9.00
2013,05,21,01,55,9.00
2013,05,21,01,56,9.00
2013,05,21,01,57,9.10
2013,05,21,01,58,9.10
2013,05,21,01,59,9.10
2013,05,21,02,00,9.10
2013,05,21,02,01,9.10
2013,05,21,02,02,9.10
2013,05,21,02,03,9.10
2013,05,21,02,04,9.10
2013,05,21,02,05,9.10
2013,05,21,02,06,9.00
2013,05,21,02,07,9.00
2013,05,21,02,08,9.00
2013,05,21,02,09,8.90
2013,05,21,02,10,8.90
2013,05,21,02,11,8.90
2013,05,21,02,12,8.80
2013,05,21,02,13,8.80
2013,05,21,02,14,8.80
2013,05,21,02,15,8.70
2013,05,21,02,16,8.70
2013,05,21,02,17,8.70
2013,05,21,02,18,8.70
2013,05,21,02,19,8.70
2013,05,21,02,20,8.70
2013,05,21,02,21,8.70
2013,05,21,02,22,8.70
2013,05,21,02,23,8.60
2013,05,21,02,24,8.60
2013,05,21,02,25,8.60
2013,05,21,02,26,8.50
2013,05,21,02,27,8.50
2013,05,21,02,28,8.50
2013,05,21,02,29,8.50
2013,05,21,02,30,8.40
2013,05,21,02,31,8.40
2013,05,21,02,32,8.40
2013,05,21,02,33,8.40
2013,05,21,02,34,8.40
2013,05,21,02,35,8.40
2013,05,21,02,36,8.30
2013,05,21,02,37,8.30
2013,05,21,02,38,8.30
2013,05,21,02,39,8.30
2013,05,21,02,40,8.30
2013,05,21,02,41,8.30
2013,05,21,02,42,8.30
2013,05,21,02,43,8.30
2013,05,21,02,44,8.30
2013,05,21,02,45,8.30
2013,05,21,02,46,8.30
2013,05,21,02,47,8.30
2013,05,21,02,48,8.20
2013,05,21,02,49,8.20
2013,05,21,02,50,8.20
2013,05,21,02,51,8.20
2013,05,21,02,52,8.20
2013,05,21,02,53,8.20
2013,05,21,02,54,8.20
2013,05,21,02,55,8.20
2013,05,21,02,56,8.20
2013,05,21,02,57,8.20
2013,05,21,02,58,8.20
2013,05,21,02,59,8.20
2013,05,21,03,00,8.20
2013,05,21,03,01,8.20
2013,05,21,03,02,8.20
2013,05,21,03,03,8.20
2013,05,21,03,04,8.20
2013,05,21,03,05,8.20
2013,05,21,03,06,8.20
2013,05,21,03,07,8.30
2013,05,21,03,08,8.30
2013,05,21,03,09,8.30
2013,05,21,03,10,8.30
2013,05,21,03,11,8.30
2013,05,21,03,12,8.30
2013,05,21,03,13,8.30
2013,05,21,03,14,8.30
2013,05,21,03,15,8.30
2013,05,21,03,16,8.30
2013,05,21,03,17,8.30
2013,05,21,03,18,8.40
2013,05,21,03,19,8.40
2013,05,21,03,20,8.40
2013,05,21,03,21,8.40
2013,05,21,03,22,8.40
2013,05,21,03,23,8.40
2013,05,21,03,24,8.40
2013,05,21,03,25,8.30
2013,05,21,03,26,8.30
2013,05,21,03,27,8.30
2013,05,21,03,28,8.30
2013,05,21,03,29,8.30
2013,05,21,03,30,8.30
2013,05,21,03,31,8.30
2013,05,21,03,32,8.30
2013,05,21,03,33,8.30
2013,05,21,03,34,8.30
2013,05,21,03,35,8.30
2013,05,21,03,36,8.30
2013,05,21,03,37,8.20
2013,05,21,03,38,8.20
2013,05,21,03,39,8.20
2013,05,21,03,40,8.20
2013,05,21,03,41,8.20
2013,05,21,03,42,8.20
2013,05,21,03,43,8.20
2013,05,21,03,44,8.20
2013,05,21,03,45,8.20
2013,05,21,03,46,8.20
2013,05,21,03,47,8.20
2013,05,21,03,48,8.20
2013,05,21,03,49,8.20
2013,05,21,03,50,8.20
2013,05,21,03,51,8.20
2013,05,21,03,52,8.20
2013,05,21,03,53,8.20
2013,05,21,03,54,8.20
2013,05,21,03,55,8.20
2013,05,21,03,56,8.20
2013,05,21,03,57,8.20
2013,05,21,06,13,7.60
2013,05,21,06,14,7.60
2013,05,21,06,15,7.60
2013,05,21,06,16,7.60
2013,05,21,06,17,7.60
2013,05,21,06,18,7.60
2013,05,21,06,19,7.60
2013,05,21,06,20,7.60
2013,05,21,06,21,7.60
2013,05,21,06,22,7.60
2013,05,21,06,23,7.60
2013,05,21,06,24,7.60
2013,05,21,06,25,7.60
2013,05,21,06,26,7.60
2013,05,21,06,27,7.60
2013,05,21,06,28,7.60
2013,05,21,06,29,7.50
2013,05,21,06,30,7.50
2013,05,21,06,31,7.50
2013,05,21,06,32,7.50
2013,05,21,06,33,7.50
2013,05,21,06,34,7.50
2013,05,21,06,35,7.40
2013,05,21,06,36,7.40
2013,05,21,06,37,7.40
2013,05,21,06,38,7.40
2013,05,21,06,39,7.40
2013,05,21,06,40,7.40
2013,05,21,06,41,7.40
2013,05,21,06,42,7.40
2013,05,21,06,43,7.40
2013,05,21,06,44,7.50
2013,05,21,06,45,7.50
2013,05,21,06,46,7.50
2013,05,21,06,47,7.50
2013,05,21,06,48,7.60
2013,05,21,06,49,7.60
2013,05,21,06,50,7.50
2013,05,21,06,51,7.50
2013,05,21,06,52,7.50
2013,05,21,06,53,7.50
2013,05,21,06,54,7.50
2013,05,21,06,55,7.50
2013,05,21,06,56,7.50
2013,05,21,06,57,7.50
2013,05,21,06,58,7.50
2013,05,21,06,59,7.50
2013,05,21,07,00,7.40
2013,05,21,07,01,7.40
2013,05,21,07,02,7.40
2013,05,21,07,03,7.40
2013,05,21,07,04,7.40
2013,05,21,07,05,7.40
2013,05,21,07,06,7.40
2013,05,21,07,07,7.40
2013,05,21,07,08,7.40
2013,05,21,07,09,7.40
2013,05,21,07,10,7.40
2013,05,21,07,11,7.40
2013,05,21,07,12,7.40
2013,05,21,07,13,7.40
2013,05,21,07,14,7.40
2013,05,21,07,15,7.40
2013,05,21,07,16,7.40
2013,05,21,07,17,7.40
2013,05,21,07,18,7.40
2013,05,21,07,19,7.40
2013,05,21,07,20,7.40
2013,05,21,07,21,7.40
2013,05,21,07,22,7.40
2013,05,21,07,23,7.40
2013,05,21,07,24,7.40
2013,05,21,07,25,7.30
2013,05,21,07,26,7.30
2013,05,21,07,27,7.30
2013,05,21,07,28,7.30
2013,05,21,07,29,7.40
2013,05,21,07,30,7.40
2013,05,21,07,31,7.40
2013,05,21,07,32,7.40
2013,05,21,07,33,7.30
2013,05,21,07,34,7.30
2013,05,21,07,35,7.30
2013,05,21,07,36,7.40
2013,05,21,07,37,7.40
2013,05,21,07,38,7.40
2013,05,21,07,39,7.40
2013,05,21,07,40,7.40
2013,05,21,07,41,7.40
2013,05,21,07,42,7.40
2013,05,21,07,43,7.40
2013,05,21,07,44,7.40
2013,05,21,07,45,7.40
2013,05,21,07,46,7.50
2013,05,21,07,47,7.50
2013,05,21,07,48,7.60
2013,05,21,07,49,7.60
2013,05,21,07,50,7.60
2013,05,21,07,51,7.60
2013,05,21,07,52,7.70
2013,05,21,07,53,7.70
2013,05,21,07,54,7.70
2013,05,21,07,55,7.80
2013,05,21,07,56,7.80
2013,05,21,07,57,7.80
2013,05,21,07,58,7.80
2013,05,21,07,59,7.90
2013,05,21,08,00,7.90
2013,05,21,08,01,8.00
2013,05,21,08,02,8.00
2013,05,21,08,03,8.00
2013,05,21,08,04,8.00
2013,05,21,08,05,8.00
2013,05,21,08,06,8.00
2013,05,21,08,07,8.00
2013,05,21,08,08,8.00
2013,05,21,08,09,8.00
2013,05,21,08,10,8.00
2013,05,21,08,11,8.00
2013,05,21,08,12,8.00
2013,05,21,08,13,8.00
2013,05,21,08,14,8.00
2013,05,21,08,15,8.00
2013,05,21,08,16,8.00
2013,05,21,08,17,8.00
2013,05,21,08,18,8.00
2013,05,21,08,19,8.00
2013,05,21,08,20,8.00
2013,05,21,08,21,8.00
2013,05,21,08,22,8.00
2013,05,21,08,23,8.10
2013,05,21,08,24,8.10
2013,05,21,08,25,8.10
2013,05,21,08,26,8.10
2013,05,21,08,27,8.10
2013,05,21,08,28,8.20
2013,05,21,08,29,8.20
2013,05,21,08,30,8.20
2013,05,21,08,31,8.20
2013,05,21,08,32,8.30
2013,05,21,08,33,8.30
2013,05,21,08,34,8.40
2013,05,21,08,35,8.40
2013,05,21,08,36,8.50
2013,05,21,08,37,8.50
2013,05,21,08,38,8.50
2013,05,21,08,39,8.50
2013,05,21,08,40,8.50
2013,05,21,08,41,8.50
2013,05,21,08,42,8.50
2013,05,21,08,43,8.50
2013,05,21,08,44,8.50
2013,05,21,08,45,8.50
2013,05,21,08,46,8.60
2013,05,21,08,47,8.60
2013,05,21,08,48,8.60
2013,05,21,08,49,8.60
2013,05,21,08,50,8.50
2013,05,21,08,51,8.50
2013,05,21,08,52,8.50
2013,05,21,08,53,8.40
2013,05,21,08,54,8.50
2013,05,21,08,55,8.50
2013,05,21,08,56,8.50
2013,05,21,08,57,8.50
2013,05,21,08,58,8.60
2013,05,21,08,59,8.60
2013,05,21,09,00,8.60
2013,05,21,09,01,8.70
2013,05,21,09,02,8.70
2013,05,21,09,03,8.70
2013,05,21,09,04,8.70
2013,05,21,09,05,8.70
2013,05,21,09,06,8.70
2013,05,21,09,07,8.70
2013,05,21,09,08,8.80
2013,05,21,09,09,8.80
2013,05,21,09,10,8.90
2013,05,21,09,11,8.90
2013,05,21,09,12,9.00
2013,05,21,09,13,9.00
2013,05,21,09,14,9.00
2013,05,21,09,15,9.00
2013,05,21,09,16,9.00
2013,05,21,09,17,9.00
2013,05,21,09,18,9.00
2013,05,21,09,19,9.10
2013,05,21,09,20,9.20
2013,05,21,09,21,9.20
2013,05,21,09,22,9.20
2013,05,21,09,23,9.20
2013,05,21,09,24,9.20
2013,05,21,09,25,9.20
2013,05,21,09,26,9.20
2013,05,21,09,27,9.20
2013,05,21,09,28,9.20
2013,05,21,09,29,9.20
2013,05,21,09,30,9.20
2013,05,21,09,31,9.20
2013,05,21,09,32,9.20
2013,05,21,09,33,9.20
2013,05,21,09,34,9.20
2013,05,21,09,35,9.20
2013,05,21,09,36,9.20
2013,05,21,09,37,9.20
2013,05,21,09,38,9.20
2013,05,21,09,39,9.20
2013,05,21,09,40,9.20
2013,05,21,09,41,9.20
2013,05,21,09,42,9.20
2013,05,21,09,43,9.20
2013,05,21,09,44,9.20
2013,05,21,09,45,9.30
2013,05,21,09,46,9.30
2013,05,21,09,47,9.30
2013,05,21,09,48,9.30
2013,05,21,09,49,9.30
2013,05,21,09,50,9.30
2013,05,21,09,51,9.30
2013,05,21,09,52,9.20
2013,05,21,09,53,9.20
2013,05,21,09,54,9.20
2013,05,21,09,55,9.20
2013,05,21,09,56,9.20
2013,05,21,09,57,9.20
2013,05,21,09,58,9.20
2013,05,21,09,59,9.20
2013,05,21,10,00,9.20
2013,05,21,10,01,9.20
2013,05,21,10,02,9.30
2013,05,21,10,03,9.20
2013,05,21,10,04,9.20
2013,05,21,10,05,9.20
2013,05,21,10,06,9.20
2013,05,21,10,07,9.20
2013,05,21,10,08,9.20
2013,05,21,10,09,9.30
2013,05,21,10,10,9.30
2013,05,21,10,11,9.30
2013,05,21,10,12,9.30
2013,05,21,10,13,9.40
2013,05,21,10,14,9.40
2013,05,21,10,15,9.50
2013,05,21,10,16,9.50
2013,05,21,10,17,9.50
2013,05,21,10,18,9.60
2013,05,21,10,19,9.60
2013,05,21,10,20,9.60
2013,05,21,10,21,9.60
2013,05,21,10,22,9.60
2013,05,21,10,23,9.70
2013,05,21,10,24,9.70
2013,05,21,10,25,9.70
2013,05,21,10,26,9.70
2013,05,21,10,27,9.70
2013,05,21,10,28,9.70
2013,05,21,10,29,9.70
2013,05,21,10,30,9.70
2013,05,21,10,31,9.70
2013,05,21,10,32,9.70
2013,05,21,10,33,9.70
2013,05,21,10,34,9.70
2013,05,21,10,35,9.80
2013,05,21,10,36,9.80
2013,05,21,10,37,9.80
2013,05,21,10,38,9.90
2013,05,21,10,39,9.90
2013,05,21,10,40,9.90
2013,05,21,10,41,9.90
2013,05,21,10,42,9.80
2013,05,21,10,43,9.90
2013,05,21,10,44,9.80
2013,05,21,10,45,9.80
2013,05,21,10,46,9.90
2013,05,21,10,47,9.90
2013,05,21,10,48,9.90
2013,05,21,10,49,10.10
2013,05,21,10,50,10.10
2013,05,21,10,51,10.10
2013,05,21,10,52,10.10
2013,05,21,10,53,10.10
2013,05,21,10,54,10.10
2013,05,21,10,55,10.10
2013,05,21,10,56,10.10
2013,05,21,10,57,10.10
2013,05,21,10,58,10.10
2013,05,21,10,59,10.10
2013,05,21,11,00,10.20
2013,05,21,11,01,10.20
2013,05,21,11,02,10.30
2013,05,21,11,03,10.30
2013,05,21,11,04,10.30
2013,05,21,11,05,10.40
2013,05,21,11,06,10.40
2013,05,21,11,07,10.40
2013,05,21,11,08,10.40
2013,05,21,11,09,10.40
2013,05,21,11,10,10.40
2013,05,21,11,11,10.40
2013,05,21,11,12,10.40
2013,05,21,11,13,10.40
2013,05,21,11,14,10.40
2013,05,21,11,15,10.40
2013,05,21,11,16,10.40
2013,05,21,11,17,10.60
2013,05,21,11,18,10.60
2013,05,21,11,19,10.60
2013,05,21,11,20,10.70
2013,05,21,11,21,10.70
2013,05,21,11,22,10.70
2013,05,21,11,23,10.70
2013,05,21,11,24,10.80
2013,05,21,11,25,10.70
2013,05,21,11,26,10.60
2013,05,21,11,27,10.70
2013,05,21,11,28,10.70
2013,05,21,11,29,10.70
2013,05,21,11,30,10.70
2013,05,21,11,31,10.70
2013,05,21,11,32,10.80
2013,05,21,11,33,10.80
2013,05,21,11,34,10.90
2013,05,21,11,35,10.90
2013,05,21,11,36,10.90
2013,05,21,11,37,10.90
2013,05,21,11,38,10.90
2013,05,21,11,39,11.10
2013,05,21,11,40,11.10
2013,05,21,11,41,11.20
2013,05,21,11,42,11.10
2013,05,21,11,43,11.10
2013,05,21,11,44,11.10
2013,05,21,11,45,11.10
2013,05,21,11,46,11.10
2013,05,21,11,47,11.10
2013,05,21,11,48,11.10
2013,05,21,11,49,11.10
2013,05,21,11,50,11.10
2013,05,21,11,51,11.10
2013,05,21,11,52,11.10
2013,05,21,11,53,11.10
2013,05,21,11,54,11.10
2013,05,21,11,55,11.10
2013,05,21,11,56,11.10
2013,05,21,11,57,10.90
2013,05,21,11,58,11.10
2013,05,21,11,59,11.10
2013,05,21,12,00,11.20
2013,05,21,12,01,11.30
2013,05,21,12,02,11.40
2013,05,21,12,03,11.40
2013,05,21,12,04,11.60
2013,05,21,12,05,11.60
2013,05,21,12,06,11.70
2013,05,21,12,07,11.80
2013,05,21,12,08,11.80
2013,05,21,12,09,11.80
2013,05,21,12,10,11.90
2013,05,21,12,11,11.90
2013,05,21,12,12,11.90
2013,05,21,12,13,11.90
2013,05,21,12,14,11.90
2013,05,21,12,15,11.90
2013,05,21,12,16,12.00
2013,05,21,12,17,12.00
2013,05,21,12,18,12.00
2013,05,21,12,19,12.00
2013,05,21,12,20,12.00
2013,05,21,12,21,12.00
2013,05,21,12,22,12.00
2013,05,21,12,23,12.00
2013,05,21,12,24,12.00
2013,05,21,12,25,12.10
2013,05,21,12,26,12.10
2013,05,21,12,27,12.20
2013,05,21,12,28,12.20
2013,05,21,12,29,12.30
2013,05,21,12,30,12.30
2013,05,21,12,31,12.30
2013,05,21,12,32,12.30
2013,05,21,12,33,12.30
2013,05,21,12,34,12.30
2013,05,21,12,35,12.30
2013,05,21,12,36,12.30
2013,05,21,12,37,12.30
2013,05,21,12,38,12.30
2013,05,21,12,39,12.30
2013,05,21,12,40,12.40
2013,05,21,12,41,12.40
2013,05,21,12,42,12.40
2013,05,21,12,43,12.40
2013,05,21,12,44,12.50
2013,05,21,12,45,12.50
2013,05,21,12,46,12.40
2013,05,21,12,47,12.40
2013,05,21,12,48,12.50
2013,05,21,12,49,12.50
2013,05,21,12,50,12.50
2013,05,21,12,51,12.50
2013,05,21,12,52,12.50
2013,05,21,12,53,12.60
2013,05,21,12,54,12.40
2013,05,21,12,55,12.30
2013,05,21,12,56,12.20
2013,05,21,12,57,12.10
2013,05,21,12,58,12.10
2013,05,21,12,59,12.10
2013,05,21,13,00,12.20
2013,05,21,13,01,12.10
2013,05,21,13,02,12.10
2013,05,21,13,03,12.00
2013,05,21,13,04,12.00
2013,05,21,13,05,12.00
2013,05,21,13,06,11.90
2013,05,21,13,07,12.00
2013,05,21,13,08,12.10
2013,05,21,13,09,12.10
2013,05,21,13,10,12.20
2013,05,21,13,11,12.20
2013,05,21,13,12,12.10
2013,05,21,13,13,12.00
2013,05,21,13,14,12.00
2013,05,21,13,15,11.90
2013,05,21,13,16,11.80
2013,05,21,13,17,11.80
2013,05,21,13,18,11.60
2013,05,21,13,19,11.60
2013,05,21,13,20,11.40
2013,05,21,13,21,11.40
2013,05,21,13,22,11.40
2013,05,21,13,23,11.40
2013,05,21,13,24,11.40
2013,05,21,13,25,11.40
2013,05,21,13,26,11.60
2013,05,21,13,27,11.60
2013,05,21,13,28,11.60
2013,05,21,13,29,11.60
2013,05,21,13,30,11.60
2013,05,21,13,31,11.60
2013,05,21,13,32,11.60
2013,05,21,13,33,11.60
2013,05,21,13,34,11.60
2013,05,21,13,35,11.60
2013,05,21,13,36,11.60
2013,05,21,13,37,11.60
2013,05,21,13,38,11.60
2013,05,21,13,39,11.60
2013,05,21,13,40,11.60
2013,05,21,13,41,11.60
2013,05,21,13,42,11.60
2013,05,21,13,43,11.60
2013,05,21,13,44,11.60
2013,05,21,13,45,11.60
2013,05,21,13,46,11.70
2013,05,21,13,47,11.70
2013,05,21,13,48,11.70
2013,05,21,13,49,11.80
2013,05,21,13,50,11.70
2013,05,21,13,51,11.70
2013,05,21,13,52,11.80
2013,05,21,13,53,11.80
2013,05,21,13,54,11.80
2013,05,21,13,55,11.80
2013,05,21,13,56,11.80
2013,05,21,13,57,11.80
2013,05,21,13,58,11.80
2013,05,21,13,59,11.80
2013,05,21,14,00,11.80
2013,05,21,14,01,11.80
2013,05,21,14,02,11.90
2013,05,21,14,03,12.00
2013,05,21,14,04,12.10
2013,05,21,14,05,12.10
2013,05,21,14,06,12.20
2013,05,21,14,07,12.20
2013,05,21,14,08,12.30
2013,05,21,14,09,12.30
2013,05,21,14,10,12.40
2013,05,21,14,11,12.40
2013,05,21,14,12,12.40
2013,05,21,14,13,12.40
2013,05,21,14,14,12.40
2013,05,21,14,15,12.40
2013,05,21,14,16,12.40
2013,05,21,14,17,12.50
2013,05,21,14,18,12.50
2013,05,21,14,19,12.50
2013,05,21,14,20,12.50
2013,05,21,14,21,12.50
2013,05,21,14,22,12.30
2013,05,21,14,23,12.30
2013,05,21,14,24,12.20
2013,05,21,14,25,12.20
2013,05,21,14,26,12.20
2013,05,21,14,27,12.30
2013,05,21,14,28,12.30
2013,05,21,14,29,12.30
2013,05,21,14,30,12.40
2013,05,21,14,31,12.50
2013,05,21,14,32,12.50
2013,05,21,14,33,12.50
2013,05,21,14,34,12.40
2013,05,21,14,35,12.30
2013,05,21,14,36,12.30
2013,05,21,14,37,12.30
2013,05,21,14,38,12.30
2013,05,21,14,39,12.20
2013,05,21,14,40,12.20
2013,05,21,14,41,12.20
2013,05,21,14,42,12.20
2013,05,21,14,43,12.20
2013,05,21,14,44,12.20
2013,05,21,14,45,12.20
2013,05,21,14,46,12.20
2013,05,21,14,47,12.30
2013,05,21,14,48,12.30
2013,05,21,14,49,12.30
2013,05,21,14,50,12.30
2013,05,21,14,51,12.30
2013,05,21,14,52,12.30
2013,05,21,14,53,12.30
2013,05,21,14,54,12.40
2013,05,21,14,55,12.50
2013,05,21,14,56,12.50
2013,05,21,14,57,12.40
2013,05,21,14,58,12.40
2013,05,21,14,59,12.50
2013,05,21,15,00,12.50
2013,05,21,15,01,12.60
2013,05,21,15,02,12.60
2013,05,21,15,03,12.70
2013,05,21,15,04,12.70
2013,05,21,15,05,12.80
2013,05,21,15,06,12.80
2013,05,21,15,07,12.70
2013,05,21,15,08,12.70
2013,05,21,15,09,12.60
2013,05,21,15,10,12.60
2013,05,21,15,11,12.60
2013,05,21,15,12,12.70
2013,05,21,15,13,12.70
2013,05,21,15,14,12.60
2013,05,21,15,15,12.70
2013,05,21,15,16,12.70
2013,05,21,15,17,12.80
2013,05,21,15,18,12.80
2013,05,21,15,19,12.80
2013,05,21,15,20,12.80
2013,05,21,15,21,12.90
2013,05,21,15,22,12.90
2013,05,21,15,23,12.80
2013,05,21,15,24,12.80
2013,05,21,15,25,12.80
2013,05,21,15,26,12.70
2013,05,21,15,27,12.70
2013,05,21,15,28,12.70
2013,05,21,15,29,12.70
2013,05,21,15,30,12.70
2013,05,21,15,31,12.60
2013,05,21,15,32,12.60
2013,05,21,15,33,12.60
2013,05,21,15,34,12.60
2013,05,21,15,35,12.70
2013,05,21,15,36,12.70
2013,05,21,15,37,12.70
2013,05,21,15,38,12.70
2013,05,21,15,39,12.70
2013,05,21,15,40,12.70
2013,05,21,15,41,12.70
2013,05,21,15,42,12.70
2013,05,21,15,43,12.80
2013,05,21,15,44,12.80
2013,05,21,15,45,12.70
2013,05,21,15,46,12.70
2013,05,21,15,47,12.70
2013,05,21,15,48,12.70
2013,05,21,15,49,12.70
2013,05,21,15,50,12.70
2013,05,21,15,51,12.70
2013,05,21,15,52,12.70
2013,05,21,15,53,12.70
2013,05,21,15,54,12.60
2013,05,21,15,55,12.60
2013,05,21,15,56,12.60
2013,05,21,15,57,12.60
2013,05,21,15,58,12.60
2013,05,21,15,59,12.60
2013,05,21,16,00,12.60
2013,05,21,16,01,12.60
2013,05,21,16,02,12.70
2013,05,21,16,03,12.70
2013,05,21,16,04,12.70
2013,05,21,16,05,12.70
2013,05,21,16,06,12.60
2013,05,21,16,07,12.60
2013,05,21,16,08,12.60
2013,05,21,16,09,12.50
2013,05,21,16,10,12.50
2013,05,21,16,11,12.40
2013,05,21,16,12,12.40
2013,05,21,16,13,12.40
2013,05,21,16,14,12.30
2013,05,21,16,15,12.30
2013,05,21,16,16,12.20
2013,05,21,16,17,12.20
2013,05,21,16,18,12.20
2013,05,21,16,19,12.20
2013,05,21,16,20,12.20
2013,05,21,16,21,12.20
2013,05,21,16,22,12.20
2013,05,21,16,23,12.20
2013,05,21,16,24,12.20
2013,05,21,16,25,12.20
2013,05,21,16,26,12.10
2013,05,21,16,27,12.10
2013,05,21,16,28,12.10
2013,05,21,16,29,12.00
2013,05,21,16,30,11.90
2013,05,21,16,31,11.90
2013,05,21,16,32,11.90
2013,05,21,16,33,11.80
2013,05,21,16,34,11.80
2013,05,21,16,35,11.80
2013,05,21,16,36,11.80
2013,05,21,16,37,11.80
2013,05,21,16,38,11.70
2013,05,21,16,39,11.70
2013,05,21,16,40,11.70
2013,05,21,16,41,11.70
2013,05,21,16,42,11.70
2013,05,21,16,43,11.70
2013,05,21,16,44,11.60
2013,05,21,16,45,11.60
2013,05,21,16,46,11.60
2013,05,21,16,47,11.40
2013,05,21,16,48,11.40
2013,05,21,16,49,11.40
2013,05,21,16,50,11.40
2013,05,21,16,51,11.40
2013,05,21,16,52,11.40
2013,05,21,16,53,11.40
2013,05,21,16,54,11.40
2013,05,21,16,55,11.40
2013,05,21,16,56,11.30
2013,05,21,16,57,11.30
2013,05,21,16,58,11.30
2013,05,21,16,59,11.30
2013,05,21,17,00,11.20
2013,05,21,17,01,11.20
2013,05,21,17,02,11.20
2013,05,21,17,03,11.20
2013,05,21,17,04,11.20
2013,05,21,17,05,11.20
2013,05,21,17,06,11.20
2013,05,21,17,07,11.20
2013,05,21,17,08,11.30
2013,05,21,17,09,11.30
2013,05,21,17,10,11.30
2013,05,21,17,11,11.30
2013,05,21,17,12,11.30
2013,05,21,17,13,11.30
2013,05,21,17,14,11.30
2013,05,21,17,15,11.30
2013,05,21,17,16,11.30
2013,05,21,17,17,11.40
2013,05,21,17,18,11.40
2013,05,21,17,19,11.40
2013,05,21,17,20,11.40
2013,05,21,17,21,11.40
2013,05,21,17,22,11.40
2013,05,21,17,23,11.40
2013,05,21,17,24,11.40
2013,05,21,17,25,11.40
2013,05,21,17,26,11.40
2013,05,21,17,27,11.40
2013,05,21,17,28,11.40
2013,05,21,17,29,11.60
2013,05,21,17,30,11.60
2013,05,21,17,31,11.60
2013,05,21,17,32,11.60
2013,05,21,17,33,11.60
2013,05,21,17,34,11.60
2013,05,21,17,35,11.60
2013,05,21,17,36,11.60
2013,05,21,17,37,11.60
2013,05,21,17,38,11.60
2013,05,21,17,39,11.60
2013,05,21,17,40,11.60
2013,05,21,17,41,11.60
2013,05,21,17,42,11.60
2013,05,21,17,43,11.60
2013,05,21,17,44,11.60
2013,05,21,17,45,11.60
2013,05,21,17,46,11.60
2013,05,21,17,47,11.60
2013,05,21,17,48,11.60
2013,05,21,17,49,11.60
2013,05,21,17,50,11.60
2013,05,21,17,51,11.60
2013,05,21,17,52,11.60
2013,05,21,17,53,11.60
2013,05,21,17,54,11.60
2013,05,21,17,55,11.60
2013,05,21,17,56,11.60
2013,05,21,17,57,11.60
2013,05,21,17,58,11.60
2013,05,21,17,59,11.60
2013,05,21,18,00,11.60
2013,05,21,18,01,11.60
2013,05,21,18,02,11.60
2013,05,21,18,03,11.60
2013,05,21,18,04,11.60
2013,05,21,18,05,11.40
2013,05,21,18,06,11.40
2013,05,21,18,07,11.40
2013,05,21,18,08,11.40
2013,05,21,18,09,11.40
2013,05,21,18,10,11.40
2013,05,21,18,11,11.40
2013,05,21,18,12,11.40
2013,05,21,18,13,11.40
2013,05,21,18,14,11.40
2013,05,21,18,15,11.60
2013,05,21,18,16,11.60
2013,05,21,18,17,11.60
2013,05,21,18,18,11.70
2013,05,21,18,19,11.70
2013,05,21,18,20,11.70
2013,05,21,18,21,11.80
2013,05,21,18,22,11.80
2013,05,21,18,23,11.80
2013,05,21,18,24,11.80
2013,05,21,18,25,11.80
2013,05,21,18,26,11.80
2013,05,21,18,27,11.80
2013,05,21,18,28,11.80
2013,05,21,18,29,11.80
2013,05,21,18,30,11.70
2013,05,21,18,31,11.70
2013,05,21,18,32,11.70
2013,05,21,18,33,11.70
2013,05,21,18,34,11.70
2013,05,21,18,35,11.70
2013,05,21,18,36,11.70
2013,05,21,18,37,11.70
2013,05,21,18,38,11.70
2013,05,21,18,39,11.70
2013,05,21,18,40,11.70
2013,05,21,18,41,11.70
2013,05,21,18,42,11.70
2013,05,21,18,43,11.70
2013,05,21,18,44,11.70
2013,05,21,18,45,11.70
2013,05,21,18,46,11.60
2013,05,21,18,47,11.60
2013,05,21,18,48,11.60
2013,05,21,18,49,11.60
2013,05,21,18,50,11.60
2013,05,21,18,51,11.60
2013,05,21,18,52,11.60
2013,05,21,18,53,11.40
2013,05,21,18,54,11.40
2013,05,21,18,55,11.40
2013,05,21,18,56,11.40
2013,05,21,18,57,11.40
2013,05,21,18,58,11.40
2013,05,21,18,59,11.60
2013,05,21,19,00,11.60
2013,05,21,19,01,11.60
2013,05,21,19,02,11.60
2013,05,21,19,03,11.60
2013,05,21,19,04,11.60
2013,05,21,19,05,11.60
2013,05,21,19,06,11.60
2013,05,21,19,07,11.60
2013,05,21,19,08,11.60
2013,05,21,19,09,11.60
2013,05,21,19,10,11.60
2013,05,21,19,11,11.60
2013,05,21,19,12,11.60
2013,05,21,19,13,11.60
2013,05,21,19,14,11.60
2013,05,21,19,15,11.60
2013,05,21,19,16,11.60
2013,05,21,19,17,11.60
2013,05,21,19,18,11.60
2013,05,21,19,19,11.60
2013,05,21,19,20,11.70
2013,05,21,19,21,11.70
2013,05,21,19,22,11.70
2013,05,21,19,23,11.70
2013,05,21,19,24,11.70
2013,05,21,19,25,11.70
2013,05,21,19,26,11.70
2013,05,21,19,27,11.60
2013,05,21,19,28,11.60
2013,05,21,19,29,11.60
2013,05,21,19,30,11.60
2013,05,21,19,31,11.60
2013,05,21,19,32,11.60
2013,05,21,19,33,11.60
2013,05,21,19,34,11.40
2013,05,21,19,35,11.40
2013,05,21,19,36,11.40
2013,05,21,19,37,11.40
2013,05,21,19,38,11.40
2013,05,21,19,39,11.30
2013,05,21,19,40,11.30
2013,05,21,19,41,11.30
2013,05,21,19,42,11.30
2013,05,21,19,43,11.30
2013,05,21,19,44,11.20
2013,05,21,19,45,11.20
2013,05,21,19,46,11.20
2013,05,21,19,47,11.20
2013,05,21,19,48,11.10
2013,05,21,19,49,11.10
2013,05,21,19,50,11.10
2013,05,21,19,51,11.10
2013,05,21,19,52,11.10
2013,05,21,19,53,11.10
2013,05,21,19,54,11.10
2013,05,21,19,55,11.10
2013,05,21,19,56,11.10